GFSSW_250_spd_000.txt.gz
Wind_Speed
71 76 74 73 64 60 64 69 64 65 66 67 64 63 63 59 59 64 64 57 55 56 52 54 53 54 57 57 54 55 62 58 57 60 60 58 51 53 54 52 54 55 54 61 61
72 67 71 74 76 72 64 66 68 69 70 69 66 64 67 65 66 63 69 63 64 61 57 58 58 63 63 61 64 62 67 58 60 61 57 51 50 50 53 52 49 53 56 62 62
57 57 53 57 59 64 69 71 71 73 75 73 68 65 59 60 61 66 68 70 74 72 71 70 67 67 59 71 78 71 66 62 60 53 49 51 50 50 47 48 51 53 56 60 64
55 55 58 54 58 65 65 64 67 72 71 70 68 67 69 73 73 75 77 72 77 73 73 70 66 60 65 76 70 67 65 58 53 52 50 50 49 44 45 46 51 53 58 62 68
56 65 66 66 69 68 65 66 66 70 71 71 73 74 72 70 75 70 70 76 75 73 70 67 67 69 79 75 69 62 59 52 54 51 51 47 45 44 49 50 52 56 59 64 67
57 62 69 73 73 70 70 69 70 68 69 69 72 76 78 76 76 72 72 74 74 76 72 75 69 77 81 79 59 45 44 52 54 54 51 46 46 48 52 54 56 61 63 64 66
66 67 68 70 71 76 77 75 72 77 76 75 71 70 68 77 73 72 72 76 77 75 74 73 85 85 70 59 46 45 49 51 56 50 49 46 48 48 54 56 56 60 64 61 69
67 72 70 73 74 73 75 73 74 80 78 76 74 74 73 81 75 74 76 79 81 82 86 88 85 75 62 64 56 53 52 55 49 52 55 49 51 51 57 60 64 64 59 64 75
74 77 76 80 74 79 79 81 79 81 81 79 80 80 82 86 82 84 87 93 93 93 90 90 79 60 52 57 59 56 59 56 52 53 53 52 56 54 59 64 62 63 68 72 73
83 85 80 77 82 86 84 83 84 87 85 84 85 89 89 92 91 93 95 96 95 88 73 66 61 59 53 52 57 56 54 54 55 57 57 58 58 60 64 62 67 67 66 70 69
78 86 84 89 94 90 90 91 91 89 90 91 89 88 91 90 92 92 87 77 76 63 59 58 46 49 50 48 51 54 53 54 59 58 56 59 61 62 63 66 64 64 67 65 60
52 52 57 59 63 79 83 90 87 84 78 69 79 74 78 84 76 66 57 51 50 49 48 45 42 47 45 43 40 49 56 58 60 63 59 61 63 64 64 65 65 62 58 56 53
49 52 54 54 52 52 54 50 52 55 60 66 63 56 54 43 48 50 49 47 47 46 46 42 46 40 37 36 38 43 45 51 54 55 51 58 60 61 60 57 59 55 55 52 52
58 56 54 54 52 54 55 53 51 51 50 47 44 47 44 39 40 49 48 48 47 45 43 43 45 41 41 42 37 37 37 38 43 43 43 40 43 52 56 57 56 53 52 48 48
68 67 65 62 59 62 61 57 52 52 44 43 41 40 41 36 44 43 45 41 41 42 40 43 43 42 43 43 41 40 38 34 37 36 37 40 38 40 42 43 47 46 45 42 39
77 75 72 71 70 72 72 70 62 61 42 37 41 45 46 43 44 48 41 39 36 36 37 35 41 42 42 45 46 42 38 35 33 35 37 39 36 32 38 35 35 34 34 32 21
80 81 80 78 80 82 82 80 76 61 48 44 44 50 52 49 48 50 45 41 36 32 28 29 35 33 36 42 44 44 43 38 30 34 32 33 30 30 34 30 26 25 24 14 11
91 88 85 85 87 91 92 92 78 53 56 55 57 59 57 57 51 52 46 38 36 40 40 35 34 38 36 37 37 38 39 34 31 27 26 29 28 29 27 27 20 16 9 7 9
101 99 92 90 96 99 103 100 66 61 62 63 66 66 63 61 59 58 50 43 40 43 44 40 37 43 33 37 38 37 34 35 28 23 24 24 23 29 27 23 18 11 5 6 6
109 106 101 102 105 106 109 90 74 69 68 71 72 72 70 68 66 62 57 48 47 49 49 43 41 45 39 31 36 38 38 34 27 23 24 28 27 30 27 22 16 12 8 8 6
119 114 109 112 112 114 109 87 83 79 79 81 79 79 74 73 69 65 59 54 53 53 52 48 44 48 41 33 33 32 37 35 31 27 25 25 29 27 24 19 15 13 11 12 5
123 121 114 121 123 114 103 91 91 88 85 90 88 87 79 76 75 71 63 62 60 60 56 53 49 43 46 35 33 37 34 37 36 29 23 24 23 24 24 21 17 12 12 14 8
110 117 124 127 131 119 107 106 102 97 95 94 89 89 85 81 78 73 69 68 66 63 61 58 51 45 41 37 39 40 34 43 36 24 20 25 22 22 22 26 17 16 13 13 11
99 107 116 129 128 124 119 114 111 106 101 101 95 94 90 86 82 79 76 73 71 70 69 65 56 47 44 47 41 36 36 41 33 22 19 26 21 26 24 25 27 18 17 16 10
85 95 106 112 115 125 127 121 116 113 107 106 101 98 95 91 86 83 80 77 77 76 74 70 56 52 47 48 41 37 37 40 33 25 17 25 25 26 21 23 18 21 20 16 11
70 81 94 103 111 117 127 127 123 117 116 110 108 103 99 98 94 87 82 81 81 80 78 71 62 56 48 49 47 40 36 39 33 28 22 23 28 24 17 24 23 21 20 19 14
60 69 79 88 99 110 111 120 122 123 121 117 111 109 106 102 99 93 87 85 83 82 80 73 64 60 52 53 50 26 43 42 33 31 31 21 29 16 23 27 22 24 21 19 10

GFSSW_250_spd_003.txt.gz
Wind_Speed
64 66 71 73 70 77 76 74 69 67 65 60 64 54 58 61 63 69 69 67 54 58 64 65 64 63 65 69 70 68 69 69 63 67 77 74 67 65 60 57 53 50 51 49 48
66 66 66 64 76 70 77 77 76 74 66 61 65 60 62 63 64 72 70 65 64 63 65 64 68 69 69 71 71 73 74 72 68 72 78 74 66 62 56 54 54 48 48 50 52
68 68 69 72 77 75 76 77 77 75 75 66 67 70 70 65 65 72 76 75 74 66 69 68 68 66 72 76 74 74 75 75 73 73 83 72 61 52 48 53 53 49 47 53 56
66 66 68 69 67 72 71 81 75 74 67 71 71 70 68 67 66 71 73 68 62 65 69 67 71 73 76 75 75 74 73 69 72 83 79 67 54 49 47 55 53 48 51 56 57
56 58 58 64 62 63 66 68 75 81 76 72 67 68 72 73 79 72 73 75 72 74 74 74 74 76 74 78 79 71 73 74 84 82 69 51 46 50 50 54 55 50 55 56 59
48 50 50 53 55 56 58 61 58 62 66 68 69 72 71 71 72 65 72 72 73 75 74 79 75 76 73 72 71 76 79 83 76 71 64 51 51 50 55 54 55 53 53 57 61
52 52 53 51 52 57 60 61 58 59 59 60 64 65 66 78 74 72 73 77 78 78 79 76 71 66 69 77 77 84 84 81 69 66 54 53 54 58 55 57 57 56 56 58 62
59 59 60 60 59 57 66 69 66 67 68 69 67 64 66 71 72 72 68 68 72 76 73 71 71 72 79 83 86 90 85 80 67 62 60 56 57 59 59 62 61 59 58 61 66
68 67 66 65 70 70 71 73 75 76 74 73 69 69 69 74 75 75 73 75 72 75 78 80 78 80 85 88 90 89 80 65 62 60 58 56 56 56 57 58 59 60 63 65 67
65 71 76 74 74 75 77 75 75 75 76 75 75 75 74 81 76 74 74 77 74 77 80 84 86 85 90 92 79 67 59 56 54 55 55 52 53 57 55 63 61 63 67 70 71
73 71 74 72 82 80 82 79 80 77 78 80 80 83 83 82 82 80 80 79 81 83 85 83 82 81 75 68 52 49 50 48 47 50 51 51 51 61 59 62 65 66 70 68 65
55 57 63 69 71 78 85 85 84 83 83 82 82 79 84 85 86 85 83 82 81 86 81 77 63 54 41 40 39 39 39 42 44 46 44 48 50 55 60 64 57 59 64 60 58
61 59 59 58 61 60 64 72 75 77 82 86 83 82 91 83 85 81 75 71 69 66 58 39 44 39 40 41 41 41 41 38 36 36 38 38 43 49 51 48 45 45 46 47 47
69 66 63 61 63 62 62 62 57 52 53 50 59 58 69 66 49 59 59 57 47 42 38 34 39 34 35 38 37 38 38 37 36 36 36 34 36 41 40 40 43 45 42 40 35
75 75 74 70 69 67 66 66 65 60 51 44 41 34 41 33 45 43 45 36 37 38 31 34 32 30 32 35 35 36 33 35 36 37 36 36 32 38 39 40 40 36 37 31 23
81 79 79 75 80 79 76 72 67 65 49 45 44 41 43 40 44 47 41 37 36 31 29 33 34 30 32 34 34 33 35 33 31 35 38 38 31 38 35 36 31 28 29 22 14
91 88 85 80 82 87 87 85 81 61 45 44 42 44 48 45 46 46 41 38 36 34 34 35 35 31 31 31 34 33 36 36 35 34 32 32 32 34 32 28 22 27 25 17 8
99 98 94 87 89 94 94 94 85 58 57 54 55 55 53 56 53 53 52 42 36 40 42 40 39 42 35 34 35 35 37 36 38 36 32 31 31 35 31 24 23 26 24 12 8
108 105 101 97 95 102 103 100 72 66 66 68 65 64 62 61 60 59 53 46 44 42 43 44 41 49 36 35 33 33 35 36 36 37 31 33 32 32 32 27 26 26 23 10 8
106 110 109 109 107 109 114 97 76 73 74 77 75 72 70 69 69 67 63 53 51 50 51 45 42 51 41 33 33 35 34 36 33 32 31 33 34 30 29 28 22 21 19 12 9
106 105 112 117 120 119 117 93 88 83 79 81 83 83 77 77 75 73 67 62 59 58 57 51 48 50 44 35 36 32 34 37 34 32 32 31 32 27 25 23 13 15 16 13 8
99 109 110 119 126 123 115 99 99 92 88 87 86 87 84 83 81 80 73 69 66 65 60 56 54 50 49 39 35 36 41 36 35 33 31 30 29 25 22 17 10 15 13 16 12
83 95 110 123 124 128 118 116 109 101 96 94 89 87 87 87 86 82 80 77 74 69 63 62 56 52 49 39 40 46 39 35 35 29 28 27 26 26 18 15 11 13 11 15 12
69 78 96 113 119 125 121 122 116 108 105 102 96 92 89 89 88 85 85 82 78 72 71 70 62 51 47 50 49 45 39 36 36 31 26 28 28 24 21 12 12 14 16 17 16
58 67 79 97 108 118 123 127 122 117 112 109 101 98 96 93 91 89 89 86 84 77 76 71 62 57 54 55 53 45 40 39 35 35 25 29 26 22 25 13 11 11 16 21 14
48 59 68 78 98 108 114 123 125 122 121 114 108 106 101 98 96 92 91 90 88 83 80 72 64 60 58 57 54 47 40 30 39 35 28 28 32 21 23 16 6 10 19 19 14
43 48 57 67 80 90 104 108 122 127 128 123 115 112 109 106 101 98 96 91 86 83 81 73 67 65 59 59 58 36 39 42 42 32 30 27 34 25 23 19 8 13 19 19 16

GFSSW_250_spd_006.txt.gz
Wind_Speed
62 61 59 58 59 70 71 72 73 71 67 67 66 64 64 62 62 63 66 62 58 62 59 63 63 61 57 61 66 63 68 72 71 72 73 79 78 78 75 71 84 73 58 55 56
67 64 60 61 60 70 74 74 69 73 69 71 68 69 67 63 63 61 63 58 55 59 61 65 66 61 64 68 69 66 69 68 69 70 75 75 76 71 75 81 85 69 59 53 55
69 67 64 63 65 63 78 75 77 74 78 79 76 73 73 71 67 63 68 67 59 61 62 62 68 72 68 68 67 69 68 69 70 77 77 78 80 78 83 86 75 60 52 53 57
71 69 67 67 68 67 70 70 69 71 72 78 77 76 74 76 74 70 75 72 68 63 64 67 66 67 69 64 66 71 65 73 82 75 76 76 79 82 87 78 69 51 52 55 56
70 70 72 70 69 68 69 72 70 68 67 71 69 80 82 84 82 82 76 74 71 71 71 68 67 66 59 61 65 72 77 74 74 77 82 76 84 86 74 71 61 52 54 60 59
65 68 66 67 67 69 70 69 66 66 68 68 76 75 81 84 85 81 74 70 68 68 66 67 68 68 71 67 69 72 74 75 75 73 76 82 85 77 69 70 60 56 61 60 59
54 53 58 59 61 60 61 65 66 61 62 60 60 64 65 66 78 79 68 68 67 69 71 68 63 64 70 71 72 74 73 71 74 78 82 84 75 61 58 63 58 49 57 58 59
58 57 56 56 56 57 51 55 55 57 55 54 53 53 56 65 62 66 65 67 72 70 70 71 69 68 63 64 70 78 75 75 78 80 85 83 61 58 54 57 62 57 56 57 59
64 63 61 64 61 62 62 61 60 62 58 58 55 55 61 68 69 67 65 66 68 64 61 63 62 63 64 70 74 72 73 76 82 84 80 68 56 59 59 59 58 56 59 60 62
68 71 68 68 70 67 71 68 68 65 59 69 65 65 68 76 70 66 67 71 70 71 72 67 69 70 70 75 73 76 78 83 87 85 58 48 47 49 53 53 59 59 60 61 64
73 74 69 69 77 78 74 72 73 73 70 71 65 71 71 77 78 74 74 78 74 70 69 73 71 71 75 72 75 75 77 66 58 45 42 42 45 51 54 52 51 54 56 59 62
58 62 70 75 79 79 79 81 78 76 76 79 74 77 77 79 80 80 77 73 73 74 76 74 73 78 73 74 75 71 57 43 41 42 42 40 42 43 43 44 45 43 45 46 49
65 64 64 64 67 70 75 79 82 81 81 81 81 75 81 78 78 78 78 78 76 77 75 75 79 74 74 71 64 51 45 38 39 39 38 38 42 41 40 42 44 45 44 45 47
72 71 70 70 72 70 68 67 68 69 71 71 78 80 85 80 79 84 80 80 79 76 81 75 74 70 61 49 47 38 34 33 31 32 32 36 38 33 36 41 41 40 39 39 35
84 81 78 75 74 80 74 72 72 69 65 56 60 64 71 72 73 79 79 77 75 77 66 59 58 47 39 43 31 27 25 28 28 28 28 28 31 35 36 37 34 33 29 31 28
93 92 88 84 81 85 83 80 78 77 61 52 50 49 50 48 49 52 52 53 52 48 45 42 42 35 35 27 25 23 24 28 29 31 27 31 30 31 31 31 32 27 31 27 27
99 98 96 93 88 92 91 90 88 77 55 50 51 53 56 55 52 49 44 44 42 40 38 44 38 30 29 24 25 22 25 30 32 33 34 32 32 32 29 28 29 26 29 29 27
100 98 101 99 98 101 101 100 94 63 64 61 57 57 57 60 55 55 51 46 42 37 42 37 33 36 31 23 26 21 27 31 31 33 36 34 32 32 27 26 26 28 29 27 20
95 101 100 101 106 108 111 109 81 73 75 73 70 65 60 57 59 58 52 47 47 45 43 42 38 40 27 28 23 22 25 28 29 33 36 37 35 32 24 24 25 29 29 15 17
90 93 96 105 109 114 120 104 88 84 86 81 79 74 69 65 65 62 59 49 47 46 48 43 44 43 38 25 25 26 27 28 30 33 31 39 39 33 24 22 22 27 20 11 13
74 82 97 103 113 117 121 97 95 94 94 91 86 84 78 75 71 69 64 60 56 56 57 52 50 47 42 30 34 30 28 31 32 32 31 40 42 32 28 21 22 24 20 6 9
61 70 90 99 110 113 115 99 107 108 104 95 92 90 86 83 80 77 72 67 63 63 62 57 58 50 50 41 34 32 34 34 34 31 35 38 42 32 28 20 22 23 20 4 8
57 63 76 87 98 111 113 110 117 114 109 103 98 97 95 90 87 83 82 77 73 70 67 67 56 56 54 38 37 38 40 35 34 34 36 38 41 28 29 21 22 26 19 5 7
51 59 66 73 86 103 113 116 120 115 114 111 105 97 95 91 90 91 87 83 80 77 76 74 68 58 51 51 50 42 42 34 34 35 37 41 41 29 29 24 16 19 17 5 11
46 52 57 63 75 89 105 114 117 119 117 117 110 106 105 99 95 94 94 92 89 84 83 79 70 63 60 59 53 49 45 39 35 40 38 39 40 36 29 26 16 21 20 10 11
39 45 48 57 64 73 89 103 113 120 121 119 115 115 111 105 105 99 98 95 95 92 87 82 73 70 67 64 58 54 47 37 37 44 41 37 43 36 28 24 16 19 21 12 9
35 37 42 47 55 63 77 90 103 117 122 124 120 122 115 113 107 104 97 92 91 91 89 84 79 74 67 66 66 59 44 42 43 45 42 37 43 35 29 25 19 17 18 11 12

GFSSW_250_spd_009.txt.gz
Wind_Speed
62 64 66 65 64 64 66 68 65 73 76 79 80 76 73 73 71 65 66 64 64 63 57 57 59 59 63 65 64 62 64 66 65 68 70 72 74 72 65 71 83 79 82 83 88
64 65 65 66 64 65 62 63 63 63 71 79 80 72 71 74 70 68 69 65 65 64 57 58 61 61 60 61 61 64 64 66 71 71 73 74 67 63 71 79 82 83 79 86 89
69 67 66 67 68 68 63 62 61 60 63 68 70 71 75 73 67 68 68 66 64 60 59 61 60 63 61 59 60 60 66 66 68 70 71 67 67 74 79 83 86 79 85 86 79
72 70 69 69 70 70 69 67 63 63 62 71 74 76 74 74 71 69 73 73 72 74 75 69 69 66 66 65 63 63 68 69 70 71 70 70 74 77 80 86 79 80 84 82 68
75 74 73 73 74 74 73 73 68 67 66 66 70 79 76 70 72 74 75 78 80 78 76 73 71 73 72 67 67 66 70 67 60 61 69 75 74 78 82 82 83 85 78 50 47
71 75 76 75 74 74 75 74 71 68 69 69 69 71 69 67 72 78 82 86 83 79 79 78 80 77 69 64 61 68 70 68 70 69 68 76 74 73 81 78 83 82 58 47 41
62 69 74 74 75 77 77 76 74 73 74 71 71 71 71 76 72 68 71 75 79 81 80 76 76 71 64 64 69 67 66 70 68 73 72 73 74 79 82 81 83 83 60 60 59
56 59 61 62 69 71 75 75 74 72 72 70 72 72 69 72 69 69 68 69 70 73 71 62 60 58 61 60 64 73 67 71 77 73 68 73 79 81 82 86 81 61 58 59 62
55 58 60 64 62 63 61 66 68 67 67 67 67 64 61 66 66 64 60 61 58 56 57 60 60 63 65 70 69 67 67 65 72 75 77 74 77 74 85 66 50 49 50 55 57
59 62 63 67 71 66 68 66 62 64 63 61 58 57 57 60 61 59 59 60 61 62 65 65 68 67 65 66 64 67 67 68 68 73 69 75 76 78 58 50 48 48 45 45 46
56 55 66 72 73 76 78 74 75 68 65 68 64 65 63 60 70 61 58 65 63 66 69 76 68 63 69 71 65 63 64 64 68 70 72 73 64 61 56 52 50 48 45 44 45
63 63 63 62 72 81 83 86 80 79 72 76 71 69 74 74 71 73 69 69 72 71 71 67 65 70 71 70 68 64 64 63 64 66 64 57 53 50 46 48 48 44 39 41 45
73 72 70 70 72 73 74 86 80 83 78 77 75 73 78 74 72 73 73 72 69 69 72 74 69 72 68 67 62 62 64 64 63 62 51 47 40 34 37 41 42 42 40 41 41
84 82 80 77 79 78 79 71 76 83 84 76 82 77 76 76 73 77 72 72 71 71 71 69 70 72 68 67 68 65 64 62 60 47 36 31 31 30 31 33 32 34 36 33 36
92 93 91 89 87 86 83 81 81 77 78 73 80 79 81 80 73 77 81 79 74 75 74 68 70 69 70 71 72 66 55 48 37 30 29 28 26 29 32 32 28 27 26 30 32
98 98 98 99 97 98 91 90 88 88 76 62 60 66 76 77 75 82 78 77 76 73 75 73 75 73 68 61 53 46 36 31 28 27 26 25 23 30 32 32 24 24 26 26 29
105 102 100 103 107 105 101 103 100 93 67 67 60 58 60 61 62 65 60 61 56 56 55 60 62 65 52 42 36 34 29 25 25 23 25 25 28 29 31 31 27 27 25 26 25
99 98 101 104 111 111 112 112 109 81 73 74 70 67 65 66 64 61 58 51 45 43 45 45 40 33 37 33 37 29 27 24 23 22 26 24 32 28 32 32 32 32 29 23 21
81 88 94 101 109 114 118 116 100 85 84 87 85 75 71 69 66 65 59 55 50 47 42 42 37 42 35 37 31 27 21 23 24 24 28 29 30 31 34 33 35 32 26 22 20
66 72 82 93 106 113 115 106 99 96 96 98 93 85 78 77 74 68 64 56 54 50 50 46 48 43 43 33 24 22 25 23 27 26 29 30 32 33 35 34 34 32 24 20 20
55 62 74 81 95 102 105 97 102 106 108 108 102 92 86 85 80 74 64 62 59 54 55 56 50 45 42 26 28 26 24 28 25 29 30 31 35 30 34 35 36 33 25 21 20
50 56 61 72 79 84 94 97 109 110 119 116 107 95 90 88 86 80 70 63 59 62 62 54 53 53 38 40 34 26 24 30 29 32 31 35 32 30 30 35 35 34 27 20 15
45 50 54 61 67 75 89 93 105 112 122 119 109 103 100 93 89 81 76 72 68 67 58 64 51 52 46 32 26 24 34 34 34 32 31 33 34 32 30 34 32 32 24 19 19
41 44 48 51 59 68 77 85 102 113 119 115 113 108 98 93 88 84 81 80 76 67 65 75 61 55 40 40 47 43 41 41 31 32 33 34 36 30 29 33 32 32 25 20 21
38 41 42 45 51 61 70 78 92 114 117 117 116 111 103 103 98 91 85 86 86 74 76 77 68 55 49 53 48 45 40 39 36 36 34 39 39 33 33 31 32 31 26 21 22
35 36 39 40 43 54 62 74 84 103 117 118 114 114 114 108 106 102 99 95 90 84 86 80 72 64 62 61 54 51 47 44 40 37 40 42 43 33 33 33 32 30 29 22 20
31 29 36 37 39 45 55 67 75 86 108 117 117 120 119 112 112 104 101 100 94 95 92 83 75 73 66 65 61 57 47 48 45 42 45 43 48 35 33 30 31 28 30 23 18

GFSSW_250_spd_015.txt.gz
Wind_Speed
81 83 84 86 86 80 82 78 71 75 71 70 65 61 66 68 70 69 73 76 76 74 71 70 69 71 68 67 65 65 63 63 62 64 62 59 64 65 70 72 76 71 68 75 81
81 82 84 86 84 82 79 83 78 76 79 79 74 75 69 72 67 68 70 68 68 69 71 73 73 74 72 68 69 67 65 67 68 65 63 66 68 68 71 77 79 78 71 79 63
80 81 82 82 84 86 84 81 83 86 77 80 83 77 76 72 72 72 74 74 72 72 70 70 72 76 70 70 74 74 70 69 68 66 67 70 69 73 74 79 80 75 76 75 73
81 82 83 83 84 85 87 87 88 86 86 80 80 77 73 74 67 73 80 78 78 73 71 69 71 69 69 73 80 79 67 67 70 69 71 72 73 77 76 79 76 72 72 71 74
65 78 82 85 86 89 93 95 94 89 85 85 80 77 75 72 68 77 81 84 88 87 86 83 79 78 77 80 80 77 72 70 67 70 76 75 75 73 74 78 73 69 72 69 73
62 65 72 79 84 89 91 93 93 90 88 86 82 76 70 60 71 75 73 79 80 79 73 72 75 76 74 75 76 70 63 64 67 71 75 74 74 70 75 75 68 62 71 75 79
56 62 67 68 77 81 84 90 93 94 92 87 83 81 73 61 74 76 67 66 68 69 69 70 68 66 67 63 65 65 64 64 68 71 72 71 64 65 70 73 70 70 72 79 83
47 47 53 60 62 70 74 82 90 94 94 92 88 82 70 69 72 69 73 65 65 66 66 65 61 63 65 67 68 63 59 59 64 63 64 68 60 66 70 71 67 74 82 80 83
52 51 55 61 61 65 69 74 77 85 90 92 90 83 74 77 72 75 68 69 67 66 64 62 62 64 60 62 61 63 62 62 62 62 62 63 62 65 63 70 76 78 79 79 84
59 60 61 61 65 68 69 75 77 74 77 85 89 85 76 80 80 75 72 71 68 69 65 64 64 62 65 65 63 63 60 55 51 55 59 61 62 66 67 68 69 72 79 83 58
68 69 69 69 68 67 72 77 76 74 71 69 73 79 80 78 78 78 76 74 73 69 66 69 64 61 65 65 63 59 49 45 57 62 62 68 70 67 65 68 68 79 79 60 51
74 75 77 78 77 75 72 84 90 82 75 71 65 64 65 73 68 74 80 80 75 69 69 70 58 57 59 60 56 50 49 57 58 60 58 64 65 66 62 66 71 76 59 53 53
85 86 84 84 84 84 83 84 84 82 78 76 71 68 67 73 69 62 68 71 71 68 67 61 57 63 56 58 57 54 55 61 61 65 68 71 65 61 63 65 66 50 43 44 50
96 94 96 94 90 89 91 91 90 83 73 60 64 64 73 74 63 64 68 69 64 59 59 54 55 59 58 60 66 67 69 64 63 65 66 65 54 57 58 62 51 38 30 37 45
100 100 97 104 101 98 93 94 96 92 82 65 67 68 77 76 70 74 74 72 65 64 62 56 66 60 56 59 59 66 69 69 68 67 62 59 55 61 59 52 33 26 27 33 37
103 106 107 105 105 104 101 102 102 101 81 72 72 70 73 72 77 78 75 75 69 69 62 61 65 58 65 70 69 70 70 68 70 66 59 65 56 62 55 34 28 20 25 30 29
80 87 93 102 111 106 108 107 107 93 81 77 83 81 82 77 77 84 83 81 72 70 65 67 66 67 68 69 68 68 69 65 57 55 59 63 58 57 33 27 21 19 25 27 26
63 69 76 85 93 94 105 110 98 88 91 89 99 98 89 87 83 84 88 84 81 73 74 69 64 63 65 64 64 70 69 64 59 60 66 62 41 25 25 17 18 22 25 26 25
53 57 62 67 74 79 88 91 89 101 102 106 111 107 103 97 95 94 87 81 76 77 75 70 66 67 67 66 66 63 60 56 62 62 52 32 20 24 12 13 18 23 27 28 20
46 49 52 57 62 64 69 75 82 103 117 121 119 116 107 104 97 98 91 76 75 76 76 75 76 74 71 74 72 66 60 58 48 36 27 19 22 13 8 8 15 21 24 29 22
40 41 46 50 52 55 61 70 77 99 118 126 124 119 111 108 102 102 83 77 74 71 69 69 71 72 76 69 60 56 43 36 36 28 23 23 22 11 8 7 15 21 23 26 27
36 35 39 42 47 51 54 58 66 79 99 113 124 122 116 110 103 99 82 79 73 73 70 64 64 64 58 52 47 43 41 42 37 26 24 24 15 13 9 7 14 20 22 26 33
32 30 33 38 41 46 48 55 62 71 87 103 115 127 124 115 106 97 91 90 90 83 74 71 67 62 60 51 46 38 35 33 29 26 21 22 21 12 10 8 12 19 23 25 31
29 29 27 35 34 39 43 48 56 66 75 89 103 119 126 120 110 103 96 95 93 89 78 84 71 60 53 42 41 35 32 32 33 26 27 25 21 11 11 8 13 18 21 25 29
28 27 26 27 31 35 39 45 51 60 71 77 91 104 117 123 120 109 98 96 96 91 84 78 72 61 58 53 46 40 40 41 37 36 28 30 20 13 12 10 13 13 22 24 26
29 25 24 26 28 33 37 41 48 56 62 69 79 90 104 116 119 115 101 97 97 94 89 81 70 65 59 51 47 46 44 40 41 34 30 26 22 19 11 11 11 16 21 23 23
29 25 21 25 27 30 34 40 45 50 57 64 71 83 97 112 116 116 106 102 99 96 92 82 72 70 58 57 52 46 49 40 41 37 34 27 30 17 9 12 11 17 19 21 22

GFSSW_250_spd_021.txt.gz
Wind_Speed
75 80 80 79 85 80 81 74 78 77 79 75 73 78 78 74 77 78 73 78 72 71 77 77 74 76 72 75 71 66 61 70 71 64 63 70 69 68 65 69 73 69 71 74 76
73 77 78 79 83 88 88 87 82 80 83 81 79 75 76 79 80 76 78 79 75 73 78 81 77 72 71 73 71 69 68 70 69 66 67 70 73 70 66 69 73 74 74 71 67
74 76 78 78 82 84 88 89 86 90 88 87 84 84 79 76 74 74 83 81 78 75 77 76 75 74 75 78 77 72 63 71 71 70 70 71 74 72 69 73 75 72 69 65 66
67 71 78 81 84 83 86 87 86 85 93 92 92 93 91 81 74 76 79 78 78 80 76 79 79 76 73 74 77 70 67 70 69 73 72 74 72 71 73 74 75 72 64 65 69
65 68 72 77 81 84 86 88 91 90 89 89 96 94 95 86 75 85 83 82 79 78 80 82 79 78 73 72 75 68 71 70 72 73 76 76 70 70 75 74 73 66 63 68 71
57 63 69 72 75 79 83 88 90 92 92 91 91 91 91 86 90 90 88 84 81 85 83 79 80 85 76 76 74 73 71 71 73 75 77 75 70 75 70 74 67 67 67 69 70
45 51 60 70 75 79 80 81 84 88 89 91 91 92 88 81 91 92 96 89 88 82 87 87 91 89 78 77 74 74 73 72 71 75 73 74 71 71 71 70 67 64 63 66 68
48 51 53 57 63 72 80 84 86 86 87 86 91 92 86 88 92 89 94 90 88 87 87 89 89 83 71 69 68 69 72 75 79 77 76 70 68 67 62 60 61 63 65 66 60
60 63 65 67 67 68 70 75 83 87 88 89 87 85 80 86 90 93 92 93 98 92 90 90 88 79 66 63 67 72 79 77 80 75 72 59 65 64 61 61 61 62 65 61 61
69 72 73 75 76 78 78 77 78 80 84 88 86 85 78 81 89 89 91 91 93 90 89 84 81 74 66 62 69 79 64 68 75 71 65 60 59 59 59 61 60 63 57 58 62
73 78 82 85 86 87 87 90 85 80 81 81 81 75 79 77 84 86 89 90 91 90 84 85 82 67 65 72 72 66 60 67 76 67 62 59 58 59 60 60 58 55 53 58 66
83 89 92 97 101 102 99 97 94 89 82 82 81 75 71 73 74 81 86 86 85 82 85 86 74 70 77 71 74 66 60 65 71 66 60 57 54 57 57 52 48 48 54 60 66
94 101 111 110 109 110 111 109 103 99 92 87 84 80 79 77 74 75 79 82 81 82 80 79 72 80 77 78 73 66 62 66 68 60 56 56 56 57 52 48 45 50 57 62 70
106 113 114 114 114 116 114 105 107 109 101 91 93 89 88 87 79 81 74 74 70 67 72 65 71 75 76 72 68 65 67 69 66 63 59 57 54 53 50 41 49 55 58 64 66
106 101 94 90 89 87 92 102 104 107 101 102 102 94 95 89 82 85 83 80 75 71 71 60 59 60 65 65 70 67 74 69 67 63 59 51 43 53 47 53 56 58 59 59 66
81 74 73 71 72 74 78 83 93 101 103 108 107 109 91 94 90 88 83 81 80 76 73 71 69 68 62 72 70 70 69 66 62 57 47 51 49 50 47 53 53 53 54 59 63
61 57 56 60 59 64 69 75 79 87 109 116 109 105 97 97 98 94 92 80 76 72 65 65 58 55 54 56 58 57 54 52 48 46 47 55 45 42 44 47 48 52 54 52 50
51 47 48 51 52 57 60 62 66 77 107 111 109 106 104 105 104 98 92 82 75 75 76 65 60 51 49 50 47 49 51 47 47 49 49 50 36 37 43 44 46 47 41 43 39
46 42 43 43 45 49 51 55 63 72 79 99 112 104 109 105 105 98 94 90 81 79 77 71 62 62 62 61 63 57 44 50 50 49 43 32 40 39 38 39 46 42 34 33 29
45 40 37 39 40 42 45 49 55 61 68 91 115 110 109 113 108 102 100 94 88 86 83 78 74 72 70 67 63 58 56 57 47 40 37 41 41 40 37 38 43 28 30 26 28
42 37 34 35 35 37 40 43 48 51 61 77 100 114 106 107 109 103 102 98 94 88 82 80 76 75 73 62 61 58 48 43 43 41 42 43 39 40 34 41 29 24 25 23 22
39 35 32 31 31 32 34 37 41 47 60 70 83 100 109 105 105 103 106 100 94 90 84 80 75 72 60 70 70 63 57 55 48 48 46 46 45 39 37 36 24 22 20 20 20
35 31 29 26 27 29 30 33 38 46 57 64 76 88 99 111 107 107 103 102 96 93 88 84 76 76 67 63 62 61 49 47 47 46 47 47 45 43 33 27 23 19 17 16 13
31 26 27 23 25 27 27 30 37 44 52 60 68 78 88 106 111 109 107 102 101 95 90 86 78 72 60 51 49 47 53 54 52 50 47 41 43 28 30 31 22 19 16 12 7
32 24 21 20 22 23 24 26 31 38 45 52 60 71 78 90 107 110 107 104 102 97 93 86 78 73 66 62 56 48 44 45 46 43 42 37 25 31 32 29 22 19 15 9 7
31 25 17 14 19 20 20 23 28 34 39 45 53 61 71 82 93 109 107 105 106 99 95 89 85 76 71 66 60 52 45 34 29 30 35 36 29 34 30 28 24 20 13 8 6
33 24 17 12 13 17 16 20 26 30 34 39 45 55 64 73 81 98 105 107 108 104 97 92 87 79 73 70 65 59 41 29 26 30 29 25 31 32 31 31 26 20 13 9 3

GFSSW_250_spd_024.txt.gz
Wind_Speed
71 71 75 80 77 80 82 85 78 81 80 77 75 78 80 80 82 79 73 80 77 72 73 75 76 76 69 64 65 67 64 66 70 70 70 68 67 69 62 59 62 65 66 70 69
70 73 75 76 78 78 83 84 82 81 81 80 79 80 83 81 80 77 84 84 77 72 73 81 78 75 73 67 63 66 67 68 74 71 69 65 69 71 62 60 65 66 68 71 70
69 72 77 79 81 83 81 84 86 88 85 80 82 85 84 84 80 75 84 84 82 78 79 83 85 81 82 78 72 66 64 71 70 73 69 68 69 70 66 65 70 66 70 72 72
65 71 76 77 78 83 83 88 88 87 87 87 89 86 86 85 79 81 86 86 85 81 80 82 86 83 81 79 75 65 66 70 70 71 69 72 69 67 69 68 70 70 71 71 76
57 63 66 69 73 77 81 83 83 87 90 89 89 91 93 86 78 92 92 91 88 85 82 85 84 83 77 78 77 64 67 70 70 69 72 71 67 65 67 72 72 70 73 75 77
47 54 60 65 69 74 77 78 79 84 88 87 89 89 90 84 88 92 89 96 97 94 90 84 80 78 77 72 70 64 64 68 69 71 71 72 66 66 70 71 69 72 73 74 73
38 43 49 55 62 67 72 77 81 83 84 85 88 92 89 79 87 94 94 91 96 97 99 98 94 83 75 74 65 61 58 60 69 73 69 73 62 69 71 69 69 70 70 69 68
47 49 51 54 57 59 62 67 73 77 82 84 86 88 86 85 87 88 91 93 95 99 98 97 99 90 79 73 69 66 64 64 72 75 78 75 53 76 73 68 68 74 70 67 66
57 60 62 64 67 68 69 72 70 70 73 79 84 85 78 82 86 91 90 90 95 93 94 98 97 92 90 86 76 66 70 72 72 78 77 68 51 77 70 65 66 66 68 64 67
66 69 72 74 76 79 80 82 80 79 77 77 77 77 75 74 82 89 91 87 90 90 91 94 94 89 82 80 70 68 74 76 70 79 71 59 55 75 62 61 63 65 62 64 64
71 76 78 80 88 90 91 95 90 88 87 87 83 80 75 74 73 83 91 92 92 95 91 88 91 82 76 77 75 74 72 66 67 76 63 57 57 71 57 61 63 63 63 61 64
75 79 81 86 91 98 103 104 101 103 99 98 93 86 84 81 75 78 82 87 90 90 91 89 80 77 78 78 78 77 73 64 73 75 64 60 55 64 56 60 60 60 60 62 62
77 84 87 95 105 111 116 116 116 117 114 107 105 94 93 91 80 82 82 83 85 88 88 86 71 80 81 80 78 77 70 69 76 73 61 57 53 56 59 57 56 57 60 64 54
73 81 92 107 119 124 124 123 110 108 116 116 118 112 104 100 89 90 82 85 84 82 86 79 75 76 75 71 73 69 69 75 75 68 58 56 54 55 57 55 57 58 62 56 53
85 94 102 108 111 111 115 119 120 123 120 117 119 128 119 108 99 95 91 88 87 83 81 66 68 70 71 69 71 64 73 76 74 67 57 54 52 61 55 54 56 52 51 51 50
94 100 101 101 95 90 86 86 84 85 91 111 120 125 123 116 107 102 98 89 87 87 77 70 73 71 64 70 72 74 78 75 69 60 50 56 53 64 54 52 48 47 46 46 47
98 99 89 80 76 70 72 71 71 72 75 78 94 116 123 117 117 109 101 93 87 86 77 70 70 66 63 57 54 52 51 53 55 53 48 59 47 57 54 41 42 41 40 38 44
89 76 68 63 61 60 57 61 62 66 66 67 79 94 113 126 119 116 108 99 94 92 87 78 70 60 56 51 45 46 47 44 46 48 48 56 37 53 38 34 37 35 33 35 44
67 58 55 53 51 51 50 53 54 56 56 60 68 81 97 116 124 118 115 107 100 96 89 82 74 69 63 59 53 45 39 40 40 40 43 48 38 34 27 35 32 30 32 36 40
56 51 48 44 44 43 43 43 45 45 47 53 61 74 87 103 119 120 115 112 105 97 91 84 76 69 68 67 59 48 46 42 38 38 37 31 28 30 29 32 30 32 30 35 30
50 44 41 37 37 36 36 36 36 38 43 50 62 70 77 91 109 120 115 111 105 98 91 86 76 72 71 59 56 52 40 30 31 30 26 27 33 32 32 33 34 34 31 28 26
43 37 34 32 30 31 31 31 32 36 44 49 57 67 73 83 100 113 115 109 105 99 93 88 80 77 65 66 64 58 47 39 33 29 33 38 40 36 31 31 35 34 24 20 26
41 32 31 28 25 25 25 27 30 35 42 46 53 63 65 77 93 105 112 111 106 100 95 90 82 78 70 65 64 53 43 40 39 31 30 29 33 31 34 37 38 29 21 20 21
41 33 26 26 20 20 21 22 26 33 38 42 51 57 60 70 86 98 111 111 107 102 95 89 80 76 67 60 62 57 49 41 40 34 34 35 34 34 35 35 33 19 20 17 17
40 34 25 22 18 15 15 17 22 29 34 39 45 50 56 65 79 93 107 110 106 101 93 88 81 77 71 66 61 54 47 44 44 44 38 43 38 36 34 33 30 22 18 15 15
41 32 25 21 17 13 13 15 21 26 30 35 40 46 52 59 71 85 101 108 104 100 93 88 85 78 76 71 64 55 46 37 41 52 49 49 42 39 40 36 25 24 20 15 16
47 37 27 21 17 12 7 11 16 22 25 28 35 41 48 54 64 76 94 103 103 99 93 88 87 80 78 73 65 53 44 38 36 36 37 31 35 36 32 30 31 25 21 16 16

GFSSW_250_spd_027.txt.gz
Wind_Speed
69 71 76 78 77 81 78 77 78 79 77 79 78 78 80 80 79 82 76 76 75 73 71 75 76 74 72 66 63 65 55 57 59 63 61 62 63 61 64 62 62 62 63 61 66
65 71 73 78 78 76 78 83 82 83 79 79 80 80 84 82 84 78 78 81 84 82 81 85 85 78 68 67 67 64 61 62 66 66 62 61 65 61 67 64 63 64 63 62 65
61 66 69 75 78 77 76 79 79 88 92 91 84 86 88 87 85 82 85 81 84 83 85 83 86 84 79 69 67 68 62 72 70 73 70 70 65 65 69 64 63 59 58 61 62
53 58 66 68 73 79 80 82 78 78 85 87 87 84 86 85 85 83 84 85 84 83 81 85 83 84 80 76 71 61 63 66 68 71 68 70 67 70 61 60 64 56 56 59 63
51 55 59 66 70 73 78 79 80 83 81 81 80 81 81 85 85 83 84 87 86 84 86 87 87 86 84 79 77 65 64 63 67 70 66 70 71 70 61 64 56 54 58 60 62
44 50 54 59 64 69 73 78 81 84 84 88 83 83 85 78 82 86 87 94 94 92 92 91 90 88 84 80 76 74 70 68 65 65 69 69 71 63 64 62 58 57 60 62 64
39 42 46 51 55 61 67 73 77 81 82 84 88 88 86 78 85 87 89 92 93 97 95 93 95 92 85 82 77 75 70 71 65 70 69 73 65 62 63 62 56 61 66 65 70
48 50 51 53 55 58 63 67 70 73 76 81 87 89 81 83 88 89 93 92 92 93 97 96 98 94 86 85 83 81 79 72 73 73 72 71 54 63 66 61 60 63 64 65 68
56 59 61 64 66 67 68 70 70 72 75 79 81 84 82 86 87 89 88 87 92 92 97 98 95 90 90 83 84 80 80 78 66 65 74 71 58 67 69 66 62 64 63 65 67
61 64 67 70 73 77 79 80 79 80 81 80 79 79 80 84 86 89 92 90 93 92 93 93 93 91 85 81 72 71 69 76 76 75 78 75 68 61 68 67 64 64 61 65 61
70 72 75 79 80 83 88 91 93 92 91 90 89 87 83 84 82 83 93 95 95 97 93 90 91 80 76 78 79 80 78 73 76 80 80 77 64 62 67 67 57 60 61 60 58
79 82 84 87 90 94 96 101 105 105 102 103 101 96 94 94 87 85 89 93 90 89 94 98 90 72 80 84 77 74 71 69 75 78 81 75 65 64 62 62 53 59 61 57 56
81 86 91 96 98 101 106 110 111 115 112 112 114 110 108 104 99 96 93 92 89 86 88 88 61 80 89 85 76 70 68 70 71 81 80 73 64 59 60 60 53 60 58 53 56
85 88 92 99 106 110 112 115 119 121 113 118 122 123 117 114 108 105 103 100 93 87 88 88 70 77 74 69 68 67 68 68 71 74 70 66 51 56 63 58 57 59 55 53 54
78 84 91 98 105 109 109 110 107 108 103 112 111 119 119 119 119 116 113 111 103 94 94 75 71 66 64 59 72 69 72 71 71 69 63 58 48 64 59 59 61 56 51 52 53
87 92 94 95 97 99 101 101 103 104 105 108 108 114 119 114 118 122 120 116 110 105 96 88 78 81 64 67 67 69 68 63 58 58 43 52 49 64 60 59 53 53 52 51 47
91 95 94 90 86 82 77 75 77 80 90 91 95 107 114 116 110 117 125 124 116 108 98 92 80 71 66 62 60 57 55 51 49 43 32 49 49 64 60 55 52 51 49 44 35
87 79 72 69 67 67 65 61 61 63 63 63 68 80 90 101 107 109 119 122 119 114 105 95 86 74 64 56 55 54 53 46 44 42 38 47 42 56 58 46 36 47 41 32 26
71 65 60 60 56 54 55 53 53 54 56 56 63 65 69 78 91 102 115 121 123 121 113 100 91 82 72 65 62 55 43 44 35 31 33 37 38 56 41 27 35 35 29 24 26
61 58 52 51 46 45 44 43 44 46 50 53 57 58 62 68 76 85 102 119 125 119 113 105 94 85 76 71 63 54 55 39 24 22 24 31 30 37 33 27 31 26 21 22 30
55 52 47 42 38 36 34 34 35 38 42 47 50 52 56 59 67 76 86 105 119 122 110 103 96 91 83 65 58 54 42 29 18 15 21 31 28 42 29 22 25 22 22 24 27
46 44 39 37 31 29 27 26 27 31 36 40 42 47 50 53 59 67 79 92 105 116 111 109 99 93 76 71 65 60 47 35 27 28 27 29 34 32 24 26 24 22 24 21 23
41 37 35 31 27 25 21 20 22 27 30 33 37 41 44 49 55 61 72 80 93 108 112 112 105 97 87 75 67 54 42 36 31 28 21 29 35 28 25 25 23 24 24 21 22
44 37 33 29 24 21 18 17 19 22 24 27 31 34 38 44 53 56 65 74 85 100 109 109 106 97 84 71 64 55 47 37 32 28 24 28 36 28 21 26 22 25 19 20 22
50 39 32 27 22 18 16 13 16 16 19 23 26 28 32 38 47 54 61 71 83 95 105 107 104 95 84 73 64 57 48 44 37 31 28 41 31 28 28 27 25 22 17 22 21
53 44 35 29 22 17 15 10 8 12 15 20 22 24 28 35 44 48 58 69 81 93 104 104 102 93 86 76 66 59 51 47 44 36 43 40 31 32 31 30 28 24 19 24 18
62 48 37 31 27 18 14 12 10 10 13 16 18 21 24 32 38 44 55 62 77 92 102 102 96 92 85 75 69 61 55 49 46 44 46 45 42 38 36 31 28 26 26 24 17

GFSSW_250_spd_030.txt.gz
Wind_Speed
62 72 75 82 82 78 80 70 69 71 71 73 78 79 80 83 80 82 78 81 75 71 70 73 74 73 70 67 63 62 58 61 64 64 66 61 59 55 55 54 52 52 57 59 58
58 61 68 76 81 86 83 82 80 77 77 74 75 77 80 82 83 80 82 80 79 79 79 76 78 75 70 69 66 67 59 59 63 66 69 65 62 60 59 59 64 64 60 60 59
59 60 63 68 77 79 83 86 90 91 87 83 80 78 79 80 80 78 79 81 80 77 81 83 83 84 83 79 71 69 64 68 71 67 67 67 66 64 62 62 69 67 64 59 56
59 61 62 65 68 74 82 83 86 88 90 92 86 84 88 86 84 81 84 86 87 84 84 80 85 84 81 81 83 78 73 76 77 77 70 62 64 59 61 61 70 60 56 57 56
57 59 61 64 66 69 74 79 83 88 87 89 85 86 92 92 86 90 90 88 91 90 88 90 89 89 86 86 84 79 79 78 72 73 72 65 58 57 58 69 65 56 56 53 53
44 50 55 59 63 68 72 76 82 86 90 92 89 87 86 88 87 92 95 96 96 93 95 95 93 92 89 85 83 82 74 68 70 71 69 67 64 65 63 74 62 54 52 57 59
41 45 49 53 59 63 66 70 73 78 84 88 89 90 91 83 89 90 94 94 95 95 92 98 93 87 84 87 83 83 80 70 73 71 74 75 63 66 66 72 63 65 62 59 61
50 52 54 56 58 60 63 66 69 73 77 81 85 88 85 85 88 93 95 93 94 92 95 93 93 91 90 82 79 79 78 72 70 73 75 76 60 71 69 71 67 63 61 63 64
56 59 63 65 66 68 69 70 72 74 75 78 81 84 84 87 88 91 90 93 98 97 94 98 96 93 90 84 83 81 76 77 78 79 79 82 69 75 74 78 70 70 61 64 67
64 67 69 71 73 76 78 79 80 79 80 81 82 84 88 89 89 92 92 92 97 95 95 94 99 100 93 85 76 83 85 86 79 82 82 84 76 78 81 83 74 66 60 66 67
72 75 80 83 84 84 85 87 89 89 88 89 89 87 87 90 93 93 92 97 97 100 99 98 104 96 79 81 82 84 85 82 85 84 82 79 76 78 74 68 69 64 61 66 64
73 79 85 87 90 93 96 98 99 99 96 100 100 96 96 98 93 93 95 98 96 99 100 115 113 78 84 91 91 89 83 76 78 77 75 75 78 74 72 66 62 57 61 62 62
77 81 84 87 92 97 101 106 109 109 105 107 109 108 106 106 102 99 99 98 98 98 102 107 83 85 88 96 97 89 82 79 75 78 82 74 75 66 67 62 61 58 63 60 60
71 78 84 89 94 97 101 104 109 114 115 119 117 118 114 114 112 109 108 105 102 98 101 107 79 84 90 91 83 79 76 78 82 85 73 81 70 63 61 59 56 62 63 61 59
69 76 83 87 93 97 100 105 105 107 108 110 121 125 121 121 120 118 116 114 108 106 106 93 89 87 81 65 75 62 77 82 80 79 74 68 64 54 54 55 55 61 59 55 53
78 83 86 89 92 92 95 97 97 97 95 99 104 114 122 126 124 123 121 121 117 117 109 99 97 95 75 81 74 78 77 74 70 67 59 54 56 44 50 56 50 52 50 49 52
84 87 85 80 78 77 77 79 81 84 88 95 92 96 101 107 114 121 124 121 121 124 114 107 105 95 86 83 78 76 67 57 56 53 42 49 50 43 56 49 45 43 43 47 46
80 72 66 62 60 59 60 60 61 63 69 69 78 86 97 98 100 98 98 105 117 123 116 121 112 99 93 86 74 67 60 56 55 49 40 45 46 43 51 50 38 35 38 41 38
62 58 57 53 49 48 46 46 47 50 54 57 62 69 78 86 97 100 95 91 95 101 117 120 112 104 98 89 82 72 61 50 54 45 35 34 35 41 42 39 27 33 35 28 30
58 53 50 47 45 41 39 39 41 42 45 49 52 57 64 68 75 83 90 95 96 98 92 92 101 106 97 96 90 81 72 62 51 33 26 31 33 37 39 29 26 27 22 23 23
44 43 40 38 35 32 30 32 32 32 34 40 43 47 52 57 62 66 72 84 93 97 95 94 80 95 104 100 84 81 67 53 40 29 20 28 29 37 34 20 26 20 18 21 23
44 40 36 31 28 25 24 24 25 26 27 30 34 38 44 50 51 55 60 71 77 85 97 95 86 89 97 91 88 82 69 60 42 34 29 27 36 38 32 25 25 20 21 24 23
46 45 40 32 27 22 19 17 14 15 19 24 28 31 35 40 45 50 51 62 66 73 84 91 88 89 91 101 96 82 68 59 51 35 33 38 42 38 26 27 24 22 26 22 22
56 49 42 35 30 24 19 14 10 10 15 18 21 24 27 33 38 43 48 54 59 65 73 83 89 85 97 89 87 79 69 62 43 33 35 38 39 36 31 28 24 22 20 20 22
70 58 47 38 32 28 21 14 11 11 13 13 15 19 25 29 33 38 43 46 53 61 68 79 86 94 96 92 87 79 74 64 45 39 37 38 43 37 32 31 23 19 18 20 25
71 71 57 43 36 30 24 16 10 9 10 10 12 16 21 26 31 35 39 43 53 59 66 76 90 97 96 90 86 77 69 60 51 45 42 45 42 26 27 22 17 20 22 25 22
79 77 66 50 39 32 26 19 13 7 7 7 9 14 18 22 27 32 37 40 47 55 64 75 90 100 97 95 87 78 72 62 56 48 48 49 41 29 24 20 23 27 25 24 21

GFSSW_250_spd_033.txt.gz
Wind_Speed
62 64 69 73 76 77 79 81 72 76 82 82 81 81 83 83 84 84 81 81 77 78 78 78 79 77 73 71 73 69 65 58 59 58 55 60 56 61 54 56 56 61 61 61 65
56 59 64 69 75 78 80 79 81 82 81 81 82 83 85 85 83 81 84 86 82 82 81 79 80 80 76 76 76 72 68 63 67 67 64 65 64 60 60 60 63 67 68 66 65
58 59 59 65 70 78 78 88 84 80 80 83 82 84 90 87 91 89 87 90 89 88 88 85 80 79 79 77 73 78 67 71 70 67 65 64 64 62 61 62 67 68 69 69 68
61 62 63 64 65 70 77 85 91 90 85 90 83 78 79 83 83 83 85 86 88 88 87 85 84 80 79 77 79 77 71 73 75 74 67 67 65 65 69 69 72 69 72 62 56
52 63 67 67 68 69 71 76 84 93 94 96 94 94 94 89 84 83 85 85 88 89 88 87 84 81 75 77 78 73 73 78 78 77 76 77 74 71 72 77 73 67 68 63 60
40 48 56 66 72 74 74 76 78 81 88 95 96 99 102 95 96 93 89 94 91 90 90 91 87 84 80 82 80 78 78 75 78 77 77 76 72 73 72 73 74 70 65 63 62
45 46 49 55 60 65 69 75 81 83 84 87 91 97 98 99 102 103 101 99 97 96 93 93 93 88 84 82 83 86 83 79 76 79 79 79 72 73 71 74 71 74 70 65 60
50 53 56 57 59 64 68 71 75 78 82 86 88 90 93 100 102 99 102 100 100 98 98 100 98 91 88 86 86 86 83 77 78 82 79 87 69 73 77 78 72 70 68 62 60
60 62 63 64 67 68 69 71 75 79 82 85 87 89 89 91 95 98 97 99 102 102 99 97 101 100 96 88 90 82 84 80 82 84 83 84 70 78 80 77 67 65 66 67 66
67 70 72 75 75 77 78 80 79 79 79 83 88 89 92 92 94 95 99 99 98 95 95 97 100 102 101 96 83 80 84 89 89 84 87 85 75 76 80 77 74 68 69 68 67
68 69 72 77 84 87 88 89 89 90 87 88 86 85 87 92 94 97 99 98 99 100 97 99 105 98 88 85 86 87 92 87 80 84 91 84 75 74 82 81 78 72 69 71 66
70 74 79 81 82 89 96 99 99 97 94 98 97 94 93 93 88 90 95 99 102 101 102 109 105 83 88 90 91 90 88 80 83 85 89 83 78 76 79 79 79 74 72 71 65
61 70 78 85 90 93 96 103 106 107 102 104 105 103 103 103 99 96 95 94 95 99 102 107 89 91 91 92 100 95 90 84 86 88 90 87 87 77 73 76 75 72 68 66 62
62 67 73 80 84 92 97 103 107 111 107 115 114 113 112 111 110 107 104 102 99 97 102 105 86 89 94 96 91 90 85 83 84 86 87 91 82 73 74 75 70 67 60 62 62
72 78 77 79 82 83 86 88 94 100 104 118 117 118 122 120 120 117 113 111 107 106 109 94 94 91 94 80 82 79 80 85 84 84 84 79 83 66 71 70 71 62 64 58 61
80 84 83 81 82 80 81 81 81 86 86 101 102 110 118 127 128 124 119 116 117 116 113 101 100 99 89 81 86 76 83 83 79 81 74 62 73 55 61 67 67 61 60 59 58
77 73 67 60 57 62 68 73 79 85 91 94 91 91 98 104 118 126 125 120 122 123 119 107 110 102 94 92 86 84 78 78 73 66 54 51 56 49 53 52 52 55 56 56 54
65 59 57 51 44 42 44 50 58 67 73 79 85 88 95 100 102 103 114 116 125 132 119 113 118 106 93 94 83 83 77 71 63 58 52 58 48 41 48 45 44 47 49 48 46
58 51 48 47 44 38 38 38 40 46 53 59 65 73 80 92 96 98 104 107 106 111 119 127 116 107 107 97 94 83 85 58 67 59 54 46 38 42 47 44 44 44 39 42 37
58 49 38 36 31 29 30 30 32 36 42 49 55 60 69 74 77 84 94 99 102 100 105 109 116 113 107 100 98 94 73 80 70 61 47 46 40 44 44 40 40 35 29 23 21
62 49 36 29 25 25 24 25 27 29 34 39 42 47 55 60 66 71 76 82 90 97 102 94 94 101 110 107 98 90 88 80 72 65 58 49 40 42 33 31 33 28 19 19 23
66 53 38 36 30 26 22 19 21 25 29 32 34 38 42 47 51 57 64 70 75 81 92 90 86 87 93 105 101 91 86 80 73 62 49 37 41 43 28 30 25 19 23 24 22
72 63 51 40 33 29 23 19 18 17 22 26 27 30 33 37 40 44 49 55 63 66 72 81 79 79 82 85 84 93 87 83 79 68 58 45 51 41 36 27 23 23 24 20 20
82 68 54 46 39 33 27 21 17 13 12 17 19 22 25 29 32 36 44 50 51 55 62 66 78 82 79 69 78 81 82 84 81 71 56 47 48 38 34 29 26 27 24 21 27
89 75 62 52 45 37 30 22 18 12 7 8 13 16 21 24 27 32 37 40 43 49 54 57 67 79 81 75 80 73 74 81 80 68 56 47 46 38 35 31 30 29 23 22 27
91 86 71 62 51 43 33 25 17 12 7 4 8 12 15 19 23 27 31 35 40 46 50 54 64 77 80 80 78 72 79 83 81 69 57 46 46 40 35 30 36 33 23 20 19
87 90 80 68 58 49 38 27 18 14 9 4 4 8 11 15 19 22 26 31 36 42 46 52 62 73 84 84 73 73 73 79 81 65 55 49 49 42 38 37 40 34 26 21 18

GFSSW_250_spd_036.txt.gz
Wind_Speed
63 65 70 80 89 88 85 78 82 80 83 83 81 81 83 84 84 86 81 84 83 85 83 79 79 85 82 77 66 65 68 64 67 66 62 62 59 61 58 56 57 57 55 53 52
60 63 66 71 76 82 86 87 87 80 78 78 80 82 87 88 89 87 89 81 84 85 85 82 83 84 84 80 78 76 72 67 70 68 66 67 65 63 60 59 59 62 57 58 62
56 60 63 66 70 75 79 84 86 91 88 84 80 79 85 87 89 89 87 88 91 87 88 85 84 81 81 85 84 81 71 73 74 73 72 70 68 66 66 63 62 61 63 60 64
49 57 61 64 68 69 74 79 83 87 89 90 87 83 83 86 90 92 91 90 89 94 89 86 90 86 81 80 82 88 78 78 78 78 78 74 73 67 66 65 63 62 66 65 67
40 48 56 62 67 70 72 73 78 83 88 90 93 92 90 90 86 89 93 93 93 88 88 90 87 84 87 86 87 79 84 87 82 82 80 75 72 71 69 68 70 70 75 73 72
40 42 50 57 64 70 75 77 77 78 83 87 91 94 96 90 97 94 89 92 96 95 94 94 92 93 91 88 87 82 87 87 84 80 77 74 67 68 70 74 73 75 79 77 74
48 50 53 54 55 63 73 80 83 83 83 84 87 92 93 96 104 99 92 94 94 94 93 96 100 102 96 92 92 96 90 85 79 70 68 71 71 70 69 77 78 76 80 80 79
57 59 60 61 63 63 64 69 80 86 89 87 88 87 89 97 104 104 101 97 101 98 93 91 93 89 90 93 96 97 97 85 72 75 73 79 73 73 78 79 75 78 79 83 82
62 65 69 71 71 72 74 74 73 76 85 92 94 91 89 93 96 104 107 106 106 103 104 105 105 96 95 89 93 89 87 82 78 79 80 86 81 73 78 79 75 74 75 73 70
64 69 72 76 79 81 82 83 82 82 79 82 88 92 97 94 96 97 98 100 105 109 109 106 110 106 99 94 83 86 89 83 85 85 89 85 83 74 80 83 79 79 82 77 78
55 65 74 80 85 88 90 93 92 92 88 88 87 86 88 96 99 100 101 100 99 101 103 107 112 104 94 97 93 91 90 89 83 86 89 90 89 76 79 77 77 78 79 78 77
47 54 63 74 87 94 96 99 102 101 96 95 95 92 91 93 93 96 101 102 102 102 104 108 101 91 99 95 96 90 92 93 84 85 87 91 89 83 78 76 77 73 76 79 76
55 60 68 72 82 89 98 101 104 106 101 102 104 101 101 100 95 94 97 99 100 102 105 108 89 98 96 96 98 93 89 89 87 90 86 90 88 73 72 76 78 78 80 79 77
61 70 78 78 70 72 75 85 94 98 101 109 110 110 109 108 103 103 101 100 99 98 105 102 93 95 98 94 93 90 87 92 90 92 83 91 83 72 81 78 78 83 78 75 75
66 81 81 77 72 69 69 71 73 72 93 106 111 114 115 113 113 112 108 106 102 104 109 89 90 94 93 83 91 82 91 88 87 85 81 79 81 69 77 74 76 74 73 71 71
71 77 72 62 59 53 50 57 66 74 84 94 98 110 112 113 117 117 114 112 111 111 108 94 97 95 86 85 88 81 84 86 85 80 71 68 82 62 64 67 67 65 61 59 55
73 68 63 52 46 41 39 39 50 63 77 89 89 89 95 105 116 117 116 116 116 118 111 104 105 97 94 89 84 85 81 81 82 75 62 61 65 44 52 56 46 44 44 43 43
74 70 62 53 46 38 36 35 36 46 60 73 83 87 86 91 96 102 110 118 119 123 118 113 110 104 96 92 88 88 84 79 72 63 57 56 45 44 45 41 35 37 41 40 41
76 69 64 52 42 36 33 31 32 35 47 60 66 75 88 95 94 97 96 99 109 121 118 117 112 107 107 101 98 89 95 69 76 68 63 54 50 43 40 38 35 34 38 40 40
79 74 62 54 40 32 28 27 27 30 35 43 56 63 70 79 87 96 100 98 103 106 104 111 113 112 109 108 104 101 86 88 78 69 60 54 50 44 39 40 36 34 39 36 37
83 79 69 55 44 33 28 25 23 23 27 31 37 50 60 66 70 78 86 93 97 99 98 99 94 100 107 113 107 104 99 93 83 76 65 57 54 49 46 39 38 32 36 33 29
84 87 79 64 51 41 33 28 21 19 22 26 30 35 43 54 60 65 69 76 82 89 96 101 95 92 90 100 106 109 102 94 85 73 67 62 57 50 40 40 37 34 35 28 20
85 87 83 74 55 45 38 30 22 18 18 20 22 25 30 38 47 54 59 61 66 71 79 87 90 89 85 87 90 97 98 98 87 81 70 63 60 53 46 48 40 34 34 22 21
79 83 87 81 64 53 42 33 26 20 16 13 14 16 21 28 35 38 46 52 56 59 66 66 72 82 88 91 91 92 87 85 89 85 73 64 63 54 50 52 44 34 37 25 21
77 83 87 83 74 58 49 36 28 22 15 11 9 12 16 20 24 29 32 38 45 49 53 56 61 66 76 89 90 87 82 83 79 75 74 65 62 57 52 53 41 36 27 29 25
72 79 86 88 81 64 52 42 30 24 18 15 10 7 8 12 15 21 25 31 34 37 44 47 50 55 62 70 82 79 77 74 74 72 70 66 63 60 54 50 41 37 32 29 21
67 72 79 84 85 73 58 47 37 28 22 17 11 7 3 5 11 17 21 25 29 35 38 39 46 52 58 66 79 68 65 65 66 72 69 68 60 60 58 49 40 35 35 31 21

GFSSW_250_spd_042.txt.gz
Wind_Speed
58 60 63 66 69 71 73 77 81 82 83 83 87 87 88 91 99 92 87 92 88 87 85 85 83 83 83 86 82 76 71 76 65 65 62 69 68 68 66 68 66 63 61 57 54
47 54 59 63 67 69 73 82 90 86 85 82 83 85 87 93 93 92 100 99 98 95 94 93 94 89 81 81 80 80 76 69 75 73 72 73 65 67 66 66 64 58 59 61 63
33 44 51 56 60 67 73 79 86 88 94 95 88 87 88 86 92 96 96 103 103 100 91 92 96 93 88 91 79 77 72 73 73 79 78 76 70 70 69 66 65 67 69 68 67
27 31 40 48 56 62 68 77 84 85 88 95 99 94 86 86 88 86 94 93 94 102 107 104 96 96 89 91 91 90 84 83 80 76 76 74 72 72 75 69 73 70 71 72 69
34 38 39 42 48 56 62 70 78 87 89 92 100 98 97 93 92 97 93 94 94 90 99 101 105 107 97 90 95 95 95 94 84 82 82 79 76 67 64 64 65 63 65 65 67
38 41 46 49 52 54 57 62 70 81 89 95 97 102 105 98 100 103 99 98 96 95 94 93 93 98 102 101 100 94 94 92 90 88 87 86 79 76 68 72 72 73 72 71 70
37 41 47 53 57 60 64 65 66 70 84 92 98 100 102 109 107 108 103 104 104 101 100 100 100 101 98 95 93 99 100 96 89 82 79 85 79 73 72 74 74 75 74 77 78
38 43 49 54 58 64 70 74 75 76 78 85 95 99 98 111 110 111 110 105 107 108 109 108 108 105 99 97 96 95 93 86 77 78 78 86 72 77 81 85 85 86 85 83 75
40 44 48 52 56 61 69 76 81 87 86 86 89 95 101 107 112 116 117 113 111 112 111 114 111 101 101 98 98 94 89 88 82 83 86 86 70 70 77 87 83 79 72 72 70
42 45 50 50 51 57 64 77 85 91 97 96 95 96 105 111 113 112 117 120 119 116 116 115 112 104 99 94 90 90 86 82 84 83 89 94 82 80 81 83 83 78 76 75 74
45 52 57 59 57 59 63 73 83 91 96 103 105 100 105 112 111 114 113 113 119 120 119 117 119 110 106 107 98 92 92 92 94 94 92 96 91 83 82 89 82 79 79 75 72
49 57 64 59 56 57 68 79 77 83 87 95 103 107 109 108 108 111 113 113 114 113 117 120 115 105 105 108 106 101 93 89 94 94 92 90 93 89 86 81 80 77 71 73 69
52 61 67 55 53 63 74 78 76 70 70 77 87 99 111 113 105 110 113 115 116 115 113 111 105 107 106 105 105 103 99 99 99 101 93 92 89 82 78 76 74 74 73 73 71
56 62 61 54 59 68 75 73 63 55 55 61 76 83 92 104 117 120 113 113 115 114 115 110 106 104 103 102 104 100 99 102 104 103 95 101 91 82 77 76 76 78 79 75 76
58 64 55 53 63 69 68 56 49 46 45 49 58 77 81 85 105 120 121 113 112 112 112 103 108 108 106 101 100 93 98 98 100 98 98 95 94 76 82 76 80 82 78 79 78
61 65 58 57 65 69 62 47 36 30 34 43 50 59 74 77 84 106 117 120 119 114 105 105 109 109 107 105 101 99 95 95 94 93 90 87 89 74 78 77 78 75 71 66 62
63 67 61 61 70 73 64 50 42 28 25 33 42 47 60 74 84 88 100 113 121 120 112 111 106 102 105 105 105 102 100 95 91 87 75 84 78 64 66 71 65 58 54 55 56
65 67 66 63 70 77 69 52 43 34 25 25 31 39 48 59 76 88 93 100 113 116 115 113 108 103 101 101 102 102 101 98 92 87 81 83 61 61 60 64 58 56 51 49 44
65 67 73 66 70 78 69 47 40 35 30 22 26 31 38 47 59 80 91 91 98 102 110 112 109 107 103 101 97 97 95 94 93 91 87 79 69 65 62 59 53 45 40 38 40
61 70 74 70 71 74 73 50 38 31 25 22 20 24 30 38 49 64 83 85 86 88 99 108 106 108 108 103 98 94 90 89 88 87 81 71 66 59 58 53 40 31 32 32 34
60 66 73 74 68 72 78 55 43 36 29 20 16 18 22 31 40 52 61 72 78 81 84 95 102 109 110 109 104 99 95 90 88 78 69 62 50 50 53 44 34 29 28 29 25
60 66 69 71 72 67 73 62 48 43 35 26 19 13 17 22 32 41 50 55 68 77 81 81 88 102 107 107 102 102 97 94 89 74 65 56 46 48 53 38 33 29 27 27 24
62 66 67 69 74 70 70 68 58 44 40 31 25 15 10 15 24 30 39 46 56 66 72 78 77 88 95 101 102 99 97 95 84 77 65 58 49 60 56 40 37 33 27 28 25
60 67 68 68 71 71 72 74 64 49 38 35 27 23 16 11 15 24 30 36 45 51 56 61 72 84 85 88 95 97 92 90 84 79 67 59 61 66 56 48 45 35 33 31 31
60 60 62 69 72 74 69 68 73 62 45 37 32 26 19 13 12 14 23 29 37 39 45 50 58 66 81 83 76 82 85 83 80 78 69 63 64 69 62 56 46 41 37 34 37
57 65 67 69 68 71 72 67 69 69 55 42 35 28 21 14 10 9 13 21 28 31 35 41 48 55 65 74 72 71 74 75 76 73 70 68 63 78 70 56 46 41 40 34 36
60 64 66 67 69 67 69 68 65 66 60 47 41 32 23 15 10 6 7 12 16 22 25 30 37 42 48 56 67 70 69 69 70 68 70 69 71 77 61 56 50 47 42 36 37

GFSSW_250_spd_045.txt.gz
Wind_Speed
59 64 64 67 68 70 71 72 74 80 85 86 86 85 89 92 91 90 86 96 98 100 96 93 89 90 91 86 83 76 73 75 77 76 75 72 71 73 71 70 70 66 64 64 61
46 58 61 63 66 69 70 72 73 76 83 88 89 88 90 99 99 95 97 96 98 95 96 97 90 93 92 91 89 82 74 73 79 79 78 74 81 79 76 69 65 66 65 63 56
16 33 53 60 63 66 68 71 74 78 80 84 88 90 89 94 98 106 100 99 98 101 96 99 99 97 97 101 94 87 82 78 77 84 83 80 75 78 75 74 75 74 69 67 69
23 26 30 39 50 58 65 70 74 77 80 83 86 90 93 93 97 100 106 113 109 107 103 100 96 92 91 93 95 97 84 82 82 86 82 79 77 67 67 66 74 74 72 73 71
29 32 35 40 43 48 54 62 69 75 80 84 86 89 95 96 100 100 102 109 110 110 108 112 113 105 97 92 96 92 88 86 81 83 80 76 74 70 65 62 64 65 65 66 64
29 35 41 45 48 51 55 59 65 72 77 82 88 92 94 99 108 106 100 102 106 111 109 109 106 107 109 106 102 94 96 91 86 86 86 82 75 76 70 66 63 61 58 58 57
33 34 38 44 50 55 59 65 67 70 76 82 86 91 95 106 110 111 109 105 104 106 107 106 108 112 108 109 110 106 103 101 94 93 92 92 84 77 70 72 75 77 76 75 71
33 36 38 42 47 53 61 69 73 78 81 83 87 92 92 105 110 122 115 114 113 108 109 110 109 108 109 106 110 112 110 103 97 94 92 95 78 76 75 78 78 73 77 78 74
26 31 37 41 47 54 60 65 73 83 88 90 91 94 97 104 109 115 118 116 121 124 116 114 110 108 108 103 105 106 100 95 92 92 98 97 81 82 82 85 86 87 81 73 73
31 37 39 42 49 53 58 63 69 81 89 95 101 101 103 109 111 114 116 118 119 123 123 122 114 111 109 105 98 91 89 90 90 89 93 93 87 85 88 93 90 84 76 74 75
39 42 41 46 51 57 59 59 63 74 87 97 107 112 110 114 110 112 117 117 121 122 125 126 123 114 105 102 100 99 98 97 93 93 96 90 86 86 86 91 87 82 79 78 71
38 40 45 51 54 58 56 55 60 71 83 88 95 102 108 114 111 112 115 117 119 121 124 126 125 118 117 115 110 106 101 102 100 102 98 97 90 87 86 83 86 84 81 78 76
37 41 48 51 55 53 52 54 65 76 77 71 75 79 92 105 112 114 114 114 116 121 123 123 119 121 121 121 116 112 107 109 106 106 98 94 90 86 84 84 82 79 76 74 75
35 41 50 50 54 53 52 59 69 74 68 59 59 58 68 84 98 113 108 116 116 115 121 120 122 120 122 120 125 118 111 108 109 106 99 97 86 83 78 78 79 78 75 72 74
39 44 49 55 56 54 55 63 66 59 52 45 49 47 51 64 81 95 104 110 113 113 113 115 119 121 122 123 121 116 116 115 113 108 106 99 92 80 88 76 79 80 80 76 74
43 47 50 55 57 55 57 64 57 49 42 33 34 40 43 48 67 87 89 102 112 117 114 112 116 118 118 120 117 112 117 119 114 112 110 104 100 76 86 86 87 87 79 76 76
47 49 54 56 59 58 58 62 60 47 43 36 28 30 36 42 54 73 86 88 100 115 117 117 113 112 115 116 113 111 111 110 108 105 91 90 88 71 79 80 87 85 80 75 71
50 52 55 54 59 61 59 65 64 51 40 32 31 28 29 36 46 60 77 87 88 100 114 118 117 112 111 110 111 109 107 105 102 96 89 87 74 67 73 71 73 72 69 67 65
52 54 54 56 58 61 60 61 58 49 42 33 26 26 25 31 38 49 60 75 86 89 100 112 117 116 113 109 107 106 104 101 100 97 90 81 67 66 65 66 66 62 55 56 52
53 54 54 59 57 63 64 60 59 47 40 34 26 22 22 25 35 41 49 60 74 85 87 98 107 114 116 113 106 102 100 98 95 92 85 78 70 62 65 68 64 55 49 49 49
51 52 58 58 58 60 64 61 61 51 41 36 30 24 22 21 26 34 40 46 59 74 83 88 94 105 111 113 113 108 101 95 87 80 73 71 67 67 67 65 63 55 51 48 44
46 53 58 61 62 59 59 64 59 56 47 39 32 24 18 19 22 25 34 40 47 59 73 83 88 95 101 109 112 112 107 99 88 77 67 58 55 60 61 65 56 52 43 41 40
51 55 54 57 63 67 63 61 61 60 52 43 34 28 22 16 15 21 27 34 42 47 57 71 82 91 91 94 102 105 106 101 92 82 69 58 47 53 54 54 47 44 38 41 38
53 54 57 53 58 64 68 64 67 60 59 45 38 29 23 19 12 16 22 26 32 40 44 54 76 89 90 85 84 91 97 97 91 80 71 55 53 52 54 51 41 37 41 36 31
49 53 59 56 60 65 67 64 65 67 64 52 40 33 23 17 17 10 16 20 26 30 38 47 57 71 82 79 69 73 79 88 86 82 73 66 60 57 61 52 41 38 39 37 31
51 53 56 59 60 62 66 72 65 65 66 59 45 33 21 16 13 11 10 14 17 24 31 39 45 52 64 70 64 63 64 69 77 80 76 70 65 65 71 56 47 41 41 37 33
50 50 57 55 61 59 63 66 62 65 63 60 49 36 25 18 12 8 6 10 13 20 25 27 31 39 46 50 55 58 62 60 66 75 77 71 69 73 71 59 53 48 46 42 38

GFSSW_250_spd_048.txt.gz
Wind_Speed
20 41 59 70 71 71 71 74 74 73 78 81 82 86 86 88 89 89 92 98 99 98 97 97 96 97 94 93 92 84 80 81 79 78 78 77 71 71 66 71 72 70 63 59 59
10 17 38 60 69 70 70 72 75 75 77 79 85 86 88 88 89 94 95 99 101 99 94 95 102 99 92 92 89 85 81 76 83 84 86 84 78 80 75 73 72 66 65 65 63
9 14 23 36 61 68 69 70 73 77 79 79 82 89 92 92 94 95 97 99 102 105 100 103 99 102 101 97 90 84 78 84 87 87 85 84 81 77 73 73 80 79 74 70 70
18 19 22 27 38 54 64 66 70 74 77 80 81 84 89 94 100 97 97 100 105 106 106 107 103 102 99 100 102 93 86 89 90 90 89 84 75 75 75 71 75 71 75 74 73
24 25 30 32 34 39 50 64 71 73 75 78 82 85 87 91 96 96 100 100 102 105 107 108 108 110 109 109 111 106 93 85 89 94 86 85 80 75 72 72 75 74 72 67 66
31 32 32 35 39 42 46 50 60 69 72 75 81 85 88 93 93 96 100 106 106 106 106 109 110 109 108 107 108 97 101 98 95 89 90 90 83 77 66 69 70 72 72 66 64
32 34 36 38 40 44 49 53 59 63 67 74 80 84 89 95 98 99 99 102 109 109 107 109 117 116 110 106 105 104 101 103 100 94 90 90 88 85 76 71 62 65 71 72 71
30 31 33 36 39 42 47 53 60 65 70 76 80 83 90 96 99 102 104 105 107 109 111 113 117 124 118 114 111 110 108 104 101 100 97 98 85 77 76 77 73 73 68 65 73
24 25 26 30 32 38 45 53 59 65 72 81 86 89 93 97 101 105 108 112 111 110 112 119 117 119 121 121 121 114 109 103 103 101 103 105 81 85 88 88 85 82 83 82 74
22 25 29 35 39 42 46 52 58 68 75 82 90 95 100 103 107 109 113 113 114 116 116 119 119 118 118 117 110 110 115 114 110 105 110 111 94 95 94 94 91 92 82 78 78
27 27 34 38 39 44 49 54 60 66 70 77 87 96 105 110 116 116 114 116 119 118 119 121 121 117 113 112 109 107 111 113 114 111 107 103 98 103 105 102 95 93 92 89 83
30 33 33 34 41 47 51 56 59 64 67 68 76 93 104 108 113 123 116 116 121 122 124 124 118 116 119 120 116 112 107 105 107 108 104 99 95 97 95 94 91 83 79 72 72
27 27 31 38 44 49 55 57 60 62 61 68 76 76 78 82 96 115 118 115 122 120 122 122 117 119 122 123 119 115 110 105 103 105 101 95 94 88 84 82 79 76 74 74 74
26 29 37 42 45 54 56 56 59 60 59 67 72 68 66 67 73 90 105 107 113 118 124 119 117 119 121 123 125 119 114 115 110 106 103 98 91 86 80 79 75 75 75 74 74
27 30 38 43 49 51 54 55 58 59 63 65 58 53 51 58 60 65 77 95 103 108 116 119 117 116 119 119 121 122 119 119 120 119 111 103 95 76 79 74 76 81 79 75 72
32 35 40 43 45 51 54 54 57 59 60 64 51 46 42 42 50 52 59 69 84 98 103 111 118 118 115 115 117 118 118 117 115 113 114 103 101 75 80 80 83 80 79 76 73
34 37 42 41 46 49 53 58 56 59 61 63 52 52 39 35 40 45 47 56 67 87 90 103 112 117 116 112 109 109 113 114 114 109 98 107 107 83 85 85 84 82 82 79 81
37 41 43 45 47 48 54 60 59 59 62 64 54 44 45 37 32 37 40 46 55 70 87 94 103 112 114 111 110 104 104 109 111 104 99 100 93 81 83 82 81 84 83 81 80
39 41 45 46 47 48 53 59 63 59 60 60 57 46 39 32 31 31 34 37 49 59 77 90 96 103 110 110 111 107 101 100 103 102 101 92 83 84 80 79 82 84 83 73 67
42 45 44 48 49 53 57 62 65 60 60 59 49 46 40 32 27 27 28 34 41 50 63 82 90 94 104 109 110 109 104 100 95 91 91 87 83 73 73 76 82 76 66 59 58
39 43 47 52 52 55 58 61 65 62 61 62 51 45 39 31 27 24 26 28 36 45 54 69 84 91 91 100 107 107 104 100 93 84 78 79 77 75 75 74 76 67 59 55 53
39 45 49 52 52 54 57 56 65 64 61 63 54 45 37 30 24 23 21 24 29 40 49 60 75 86 88 92 96 99 103 100 94 83 75 70 70 71 67 68 74 66 59 52 50
43 43 48 52 57 58 61 57 62 64 61 66 61 47 37 29 21 21 17 21 24 31 42 52 64 76 85 83 85 89 94 98 95 89 76 67 59 61 61 61 68 58 54 53 49
43 43 46 51 56 61 62 59 65 68 61 63 64 53 38 29 21 15 15 16 20 26 35 46 56 66 76 78 76 76 81 87 89 86 80 62 63 57 55 57 62 47 49 47 43
43 46 47 52 56 60 64 63 64 68 62 64 64 55 40 25 19 11 12 13 16 19 28 37 44 52 58 66 71 69 67 71 73 83 72 71 65 60 56 55 45 39 41 42 40
43 47 50 53 55 58 63 61 64 66 63 63 63 54 39 27 16 11 9 9 10 16 20 26 35 41 46 52 57 63 61 56 62 72 77 74 66 63 60 57 43 36 39 44 42
45 48 53 55 53 54 59 58 62 63 64 62 63 56 41 29 21 16 13 8 7 9 14 21 27 34 36 38 47 59 62 58 57 61 72 75 71 69 66 64 47 39 45 47 45